Batman, Turkey

3:51 AM +03 on December 05, 2016 (GMT +0300)
Batman Air Base

Weather History for LTCJ - August, 2014

Change the Weather History Date:

Thursday, August 28, 2014

  Actual Average (LTCC) Record (LTCC)
Temperature  
Mean Temperature 89 °F -  
Max Temperature 110 °F 96 °F 111 °F (1998)
Min Temperature 68 °F 66 °F 62 °F (1996)
Cooling Degree Days 24    
Growing Degree Days 39 (Base 50)    
Moisture  
Dew Point 35 °F    
Average Humidity 17    
Maximum Humidity 46    
Minimum Humidity 4    
Precipitation  
Precipitation 0.00 in - - ()
Sea Level Pressure  
Sea Level Pressure 29.69 in    
Wind  
Wind Speed 6 mph ()    
Max Wind Speed 15 mph    
Max Gust Speed -    
Visibility 9.3 miles    
Events      
Averages and records for this station are not official NWS values.
T = Trace of Precipitation, MM = Missing Value Source: Averaged Metar Reports

Daily Weather History Graph

Daily Weather History Graph

Search for Another Location

Airport or City:

Trip Planner

Search our weather history database for the weather conditions in past years. The results will help you decide how hot, cold, wet, or windy it might be!

Date:

Astronomy

Aug. 28, 2014 Rise Set
Actual Time 5:41 AM EEST 6:51 PM EEST
Civil Twilight 5:14 AM EEST 7:18 PM EEST
Nautical Twilight 4:42 AM EEST 7:50 PM EEST
Astronomical Twilight 4:08 AM EEST 8:24 PM EEST
Moon 8:10 AM EEST (8/28) 8:07 PM EEST (8/28)
Length of Visible Light 14h 03m
Length of Day
13h 09m
Waxing Crescent, 7% of the Moon is Illuminated
Aug 28
Waxing Crescent
Sep 2
First Quarter
Sep 9
Full
Sep 16
Last Quarter
Sep 24
New

Hourly Weather History & Observations

Time (EEST) Temp. Dew Point Humidity Pressure Visibility Wind Dir Wind Speed Gust Speed Precip Events Conditions
12:20 AM 71.6 °F 41.0 °F 33% 29.74 in - NNE 5.8 mph - N/A   Clear
12:50 AM 73.4 °F 39.2 °F 29% 29.74 in - NNE 5.8 mph - N/A   Clear
1:20 AM 71.6 °F 37.4 °F 29% 29.74 in - NE 5.8 mph - N/A   Clear
1:50 AM 68.0 °F 41.0 °F 37% 29.74 in - NNE 8.1 mph - N/A   Clear
2:20 AM 69.8 °F 37.4 °F 31% 29.74 in - NNE 8.1 mph - N/A   Clear
2:50 AM 68.0 °F 35.6 °F 30% 29.74 in - NNE 6.9 mph - N/A   Clear
3:20 AM 66.2 °F 42.8 °F 43% 29.74 in - NNE 6.9 mph - N/A   Clear
3:50 AM 69.8 °F 35.6 °F 28% 29.74 in - NE 9.2 mph - N/A   Clear
4:20 AM 68.0 °F 37.4 °F 33% 29.74 in - NNE 11.5 mph - N/A   Clear
4:50 AM 69.8 °F 37.4 °F 31% 29.74 in - NE 5.8 mph - N/A   Clear
5:20 AM 66.2 °F 44.6 °F 46% 29.74 in - WNW 4.6 mph - N/A   Clear
5:50 AM 68.0 °F 37.4 °F 33% 29.77 in - East 4.6 mph - N/A   Clear
6:20 AM 68.0 °F 37.4 °F 33% 29.77 in - NNE 5.8 mph - N/A   Clear
6:50 AM 69.8 °F 44.6 °F 40% 29.77 in - North 3.5 mph - N/A   Clear
7:20 AM 77.0 °F 35.6 °F 22% 29.77 in - NNE 8.1 mph - N/A   Clear
7:50 AM 82.4 °F 35.6 °F 19% 29.77 in - NE 4.6 mph - N/A   Clear
8:20 AM 87.8 °F 35.6 °F 16% 29.77 in - NE 3.5 mph - N/A   Clear
8:50 AM 93.2 °F 35.6 °F 13% 29.77 in - NNE 8.1 mph - N/A   Clear
9:00 AM 90 °F 36 °F 8% 29.62 in 12 mi NW 2.3 mph - -  
9:20 AM 95.0 °F 35.6 °F 12% 29.77 in - NW 5.8 mph - N/A   Clear
9:50 AM 100.4 °F 39.2 °F 12% 29.77 in - Variable 4.6 mph - N/A   Clear
10:00 AM 96 °F 36 °F 6% 29.60 in 12 mi West 3.5 mph - -  
10:20 AM 100.4 °F 39.2 °F 12% 29.74 in - WSW 6.9 mph - N/A   Clear
10:50 AM 100.4 °F 37.4 °F 11% 29.74 in - WSW 6.9 mph - N/A   Clear
11:00 AM 102 °F 38 °F 5% 29.60 in 12 mi WNW 5.8 mph - -  
11:20 AM 104.0 °F 32.0 °F 8% 29.74 in - West 4.6 mph - N/A   Clear
11:50 AM 105.8 °F 30.2 °F 7% 29.71 in - West 5.8 mph - N/A   Clear
12:00 PM 106 °F 29 °F 4% 29.57 in 12 mi WNW 3.5 mph - -  
12:20 PM 105.8 °F 26.6 °F 6% 29.71 in - West 4.6 mph - N/A   Clear
12:50 PM 107.6 °F 26.6 °F 6% 29.71 in 6.2 mi NNW 6.9 mph - N/A   Partly Cloudy
1:00 PM 107 °F 26 °F 4% 29.56 in 12 mi South 3.5 mph - -  
1:20 PM 107.6 °F 28.4 °F 6% 29.71 in 6.2 mi North 5.8 mph - N/A   Partly Cloudy
1:50 PM 109.4 °F 28.4 °F 6% 29.71 in 6.2 mi Variable 3.5 mph - N/A   Partly Cloudy
2:00 PM 110 °F 29 °F 4% 29.54 in 12 mi WSW 4.6 mph - -  
2:20 PM 107.6 °F 28.4 °F 6% 29.68 in 6.2 mi WNW 8.1 mph - N/A   Partly Cloudy
2:50 PM 107.6 °F 28.4 °F 6% 29.68 in 6.2 mi South 4.6 mph - N/A   Partly Cloudy
3:00 PM 108 °F 23 °F 4% 29.52 in 12 mi South 8.1 mph - -   Scattered Clouds
3:20 PM 107.6 °F 23.0 °F 5% 29.65 in 6.2 mi SSE 5.8 mph - N/A   Partly Cloudy
3:50 PM 107.6 °F 28.4 °F 6% 29.65 in 6.2 mi SSE 8.1 mph - N/A   Partly Cloudy
4:00 PM 105 °F 25 °F 4% 29.52 in 12 mi South 5.8 mph - -   Partly Cloudy
4:20 PM 105.8 °F 30.2 °F 7% 29.65 in 6.2 mi SSE 6.9 mph - N/A   Partly Cloudy
4:50 PM 105.8 °F 33.8 °F 8% 29.65 in 6.2 mi WSW 15.0 mph - N/A   Partly Cloudy
5:00 PM 104 °F 31 °F 4% 29.51 in 12 mi West 10.4 mph - -   Partly Cloudy
5:20 PM 104.0 °F 33.8 °F 9% 29.65 in 6.2 mi WSW 11.5 mph - N/A   Partly Cloudy
5:50 PM 102.2 °F 35.6 °F 10% 29.65 in 6.2 mi WSW 10.4 mph - N/A   Partly Cloudy
6:00 PM 102 °F 30 °F 4% 29.53 in 12 mi WSW 11.5 mph - -   Partly Cloudy
6:20 PM 98.6 °F 35.6 °F 11% 29.65 in - WSW 9.2 mph - N/A   Clear
6:50 PM 93.2 °F 35.6 °F 13% 29.68 in - SW 6.9 mph - N/A   Clear
7:00 PM 96 °F 36 °F 6% 29.55 in 12 mi West 5.8 mph - -   Partly Cloudy
7:20 PM 87.8 °F 41.0 °F 19% 29.68 in - South 5.8 mph - N/A   Clear
7:50 PM 87.8 °F 41.0 °F 19% 29.71 in - South 6.9 mph - N/A   Clear
8:00 PM 89 °F 33 °F 7% 29.57 in 12 mi WSW 3.5 mph - -   Partly Cloudy
8:20 PM 86.0 °F 41.0 °F 20% 29.71 in - South 5.8 mph - N/A   Clear
8:50 PM 84.2 °F 42.8 °F 23% 29.71 in - South 6.9 mph - N/A   Clear
9:00 PM 90 °F 35 °F 7% 29.58 in 12 mi WNW 2.3 mph - -   Partly Cloudy
9:20 PM 82.4 °F 42.8 °F 25% 29.74 in - Variable 1.2 mph - N/A   Clear
9:50 PM 82.4 °F 44.6 °F 26% 29.74 in - SSW 3.5 mph - N/A   Clear
10:20 PM 80.6 °F 42.8 °F 26% 29.74 in - NNE 1.2 mph - N/A   Clear
10:50 PM 75.2 °F 44.6 °F 34% 29.74 in - NNE 6.9 mph - N/A   Clear
11:20 PM 77.0 °F 42.8 °F 29% 29.74 in - NNE 5.8 mph - N/A   Clear
11:50 PM 75.2 °F 42.8 °F 31% 29.74 in - NNE 4.6 mph - N/A   Clear